SP3ZBZ-13 Weather Reports


time (UTC)temp
F
wind
direction
speed
knots
gust
knots
rain 1hr
in
rain 24hr
in
rain mn
in
humidity
%
barometer
mb
20260508002250 45 318 0.9 3.5 0.00 0.00 0.00 90 1014.0
20260508000749 45 300 0.9 2.6 0.00 0.00 0.00 88 1014.0
20260507235248 46 336 1.7 2.6 0.00 0.00 0.00 86 1014.0
20260507233748 46 348 1.7 3.5 0.00 0.00 0.00 86 1014.1
20260507232247 46 288 0.9 2.6 0.00 0.00 0.00 86 1014.1
20260507230746 46 294 0.9 2.6 0.00 0.00 0.00 84 1014.2
20260507225245 46 348 0.9 2.6 0.00 0.00 0.00 83 1014.1
20260507223744 46 354 0.9 2.6 0.00 0.00 0.00 84 1014.1
20260507222243 46 348 1.7 3.5 0.00 0.00 0.00 86 1013.9
20260507220742 46 348 2.6 4.3 0.00 0.00 0.00 86 1013.9
20260507215241 46 24 2.6 5.2 0.00 0.00 0.00 87 1013.7
20260507213740 46 356 2.6 4.3 0.00 0.00 0.00 88 1013.6
20260507212239 46 348 2.6 4.3 0.00 0.00 0.00 88 1013.5
20260507210738 46 16 2.6 4.3 0.00 0.00 0.00 87 1013.4
20260507205238 47 318 2.6 5.2 0.00 0.00 0.00 87 1013.3
20260507203736 46 0 0.9 3.5 0.00 0.00 0.00 87 1013.2
20260507202235 46 288 1.7 2.6 0.00 0.00 0.00 89 1013.1
20260507200735 46 294 1.7 3.5 0.00 0.00 0.00 89 1013.0
20260507195234 46 264 0.9 1.7 0.00 0.00 0.00 89 1013.0
20260507193733 46 300 0.0 1.7 0.00 0.00 0.00 88 1012.8
20260507192232 46 282 0.9 2.6 0.00 0.00 0.00 87 1012.7
20260507190731 46 330 0.0 2.6 0.00 0.00 0.00 87 1012.5
20260507185230 47 54 0.0 1.7 0.00 0.00 0.00 87 1012.4
20260507183729 47 343 1.7 3.5 0.00 0.00 0.00 87 1012.1
20260507182228 47 331 2.6 5.2 0.00 0.00 0.00 85 1011.7
20260507180727 47 354 2.6 6.1 0.00 0.00 0.00 85 1011.7
20260507175226 47 0 2.6 6.1 0.00 0.00 0.00 86 1011.7
20260507173725 47 0 3.5 5.2 0.00 0.00 0.00 86 1011.6
20260507172224 47 6 4.3 7.0 0.00 0.00 0.00 85 1011.6
20260507170724 47 330 4.3 8.7 0.00 0.00 0.00 86 1011.5
20260507165222 47 348 3.5 7.8 0.00 0.00 0.00 87 1011.4
20260507163721 47 330 4.3 8.7 0.01 0.00 0.00 87 1011.3
20260507162221 47 324 6.1 9.6 0.01 0.00 0.00 88 1011.3
20260507160720 47 312 4.3 7.0 0.01 0.00 0.00 90 1011.3
20260507155219 47 338 3.5 6.1 0.00 0.00 0.00 87 1011.3
20260507153718 48 330 3.5 6.1 0.00 0.00 0.00 84 1011.3
20260507152216 49 22 3.5 5.2 0.00 0.00 0.00 78 1011.3
20260507150716 49 3 3.5 6.1 0.00 0.00 0.00 77 1011.2
20260507145214 49 324 4.3 7.0 0.00 0.00 0.00 77 1011.0
20260507143713 49 5 4.3 7.0 0.00 0.00 0.00 77 1010.9
20260507142212 49 24 4.3 7.0 0.00 0.00 0.00 77 1010.9
20260507140710 49 342 4.3 7.0 0.00 0.00 0.00 78 1010.9
20260507135209 48 30 4.3 8.7 0.00 0.00 0.00 79 1010.9
20260507133708 48 348 4.3 8.7 0.00 0.00 0.00 80 1010.8
20260507132207 48 357 4.3 7.8 0.00 0.00 0.00 80 1010.8
20260507130706 48 16 4.3 7.8 0.00 0.00 0.00 82 1010.8
20260507125205 47 324 2.6 5.2 0.00 0.00 0.00 82 1010.6
20260507123704 47 24 5.2 8.7 0.00 0.00 0.00 85 1010.5
20260507122203 47 318 4.3 7.8 0.01 0.00 0.00 85 1010.3
20260507120702 46 24 5.2 8.7 0.01 0.00 0.00 84 1010.2
20260507115201 47 336 5.2 8.7 0.01 0.00 0.00 87 1010.1
20260507113700 47 0 5.2 8.7 0.01 0.00 0.00 84 1010.0
20260507112159 47 18 5.2 8.7 0.01 0.00 0.00 81 1009.9
20260507110658 47 342 5.2 8.7 0.01 0.00 0.00 83 1009.9
20260507105157 47 18 4.3 8.7 0.00 0.00 0.00 81 1009.7
20260507103656 47 330 4.3 7.8 0.00 0.00 0.00 82 1009.7
20260507102155 46 60 4.3 7.0 0.00 0.00 0.00 83 1009.6
20260507100654 46 48 4.3 7.8 0.00 0.00 0.00 85 1009.4
20260507095153 46 336 5.2 7.8 0.00 0.00 0.00 84 1009.3
20260507093652 46 24 5.2 8.7 0.00 0.00 0.00 83 1009.2
20260507092151 46 6 5.2 10.4 0.00 0.00 0.00 83 1009.0
20260507090651 46 36 5.2 9.6 0.00 0.00 0.00 81 1009.0
20260507085150 46 6 5.2 9.6 0.00 0.00 0.00 83 1008.7
20260507083649 46 24 4.3 8.7 0.00 0.00 0.00 82 1008.6
20260507082148 45 36 5.2 8.7 0.00 0.00 0.00 84 1008.5
20260507080647 45 24 6.1 9.6 0.00 0.00 0.00 85 1008.3
20260507075146 45 3 6.1 9.6 0.00 0.00 0.00 85 1007.9
20260507073644 45 0 6.1 9.6 0.00 0.00 0.00 86 1007.7
20260507072144 46 342 5.2 9.6 0.00 0.00 0.00 80 1007.7
20260507070642 46 348 6.1 11.3 0.00 0.00 0.00 82 1007.6
20260507065141 46 24 5.2 9.6 0.00 0.00 0.00 82 1007.6
20260507063641 46 12 6.1 9.6 0.00 0.00 0.00 83 1007.5
20260507062139 46 36 6.1 10.4 0.00 0.00 0.00 83 1007.4
20260507060638 46 348 5.2 9.6 0.00 0.00 0.00 82 1007.3
20260507055138 45 0 4.3 7.8 0.00 0.00 0.00 85 1007.1
20260507053637 45 12 5.2 8.7 0.00 0.00 0.00 85 1006.9
20260507052135 45 12 4.3 7.8 0.00 0.00 0.00 86 1006.8
20260507050634 44 17 4.3 7.0 0.00 0.00 0.00 87 1006.7
20260507045133 44 352 3.5 7.0 0.00 0.00 0.00 88 1006.6
20260507043633 44 36 3.5 7.0 0.00 0.00 0.00 88 1006.5
20260507042132 44 352 3.5 7.0 0.00 0.00 0.00 89 1006.2
20260507040631 44 36 4.3 8.7 0.00 0.00 0.00 89 1006.0
20260507035130 44 17 5.2 8.7 0.00 0.00 0.00 90 1005.8
20260507033629 43 24 5.2 8.7 0.00 0.00 0.00 91 1005.9
20260507032128 43 5 5.2 8.7 0.00 0.00 0.00 92 1005.7
20260507030626 43 12 5.2 8.7 0.00 0.00 0.00 92 1005.6
20260507025126 43 0 6.1 9.6 0.00 0.00 0.00 92 1005.5
20260507023625 44 16 5.2 8.7 0.00 0.00 0.00 92 1005.3
20260507022124 44 0 5.2 9.6 0.00 0.00 0.00 91 1005.3
20260507020622 44 4 5.2 8.7 0.00 0.00 0.00 91 1005.2
20260507015121 44 0 5.2 9.6 0.00 0.00 0.00 92 1005.1
20260507013620 44 348 5.2 8.7 0.00 0.00 0.00 92 1005.0
20260507012119 44 338 4.3 7.8 0.00 0.00 0.00 92 1004.9
20260507010619 44 12 5.2 8.7 0.00 0.00 0.00 91 1005.0
20260507005117 44 342 3.5 7.0 0.00 0.00 0.00 91 1005.0
20260507003617 44 22 3.5 7.0 0.00 0.00 0.00 92 1005.0